This is the latest recevied weather packets stored in our database for station/object KB9HUO. If no packets are shown the sender has not sent any weather packets the latest 10 day(s).
| Time | Temp. | Humidity | Pressure | Rain* | Wind** | Luminosity | Snow |
|---|---|---|---|---|---|---|---|
| 1788549894 | 36.11° C | 54% | 1016.2 hPa | 0 mm | - | 127 W/m² | - |
| 1788549591 | 37.22° C | 50% | 1016.3 hPa | 0 mm | - | 177 W/m² | - |
| 1788549287 | 36.67° C | 52% | 1016.3 hPa | 0 mm | - | 166 W/m² | - |
| 1788548983 | 36.67° C | 52% | 1016.7 hPa | 0 mm | - | 159 W/m² | - |
| 1788548678 | 36.67° C | 50% | 1016.6 hPa | 0 mm | - | 172 W/m² | - |
| 1788548375 | 36.67° C | 50% | 1016.8 hPa | 0 mm | - | 164 W/m² | - |
| 1788548070 | 36.67° C | 50% | 1016.4 hPa | 0 mm | - | 343 W/m² | - |
| 1788547764 | 36.67° C | 49% | 1016.6 hPa | 0 mm | - | 625 W/m² | - |
| 1788547459 | 35.56° C | 53% | 1016.6 hPa | 0 mm | - | 617 W/m² | - |
| 1788547154 | 35.56° C | 55% | 1016.8 hPa | 0 mm | - | 583 W/m² | - |
| 1788546850 | 35° C | 52% | 1017 hPa | 0 mm | - | 608 W/m² | - |
| 1788546546 | 35.56° C | 53% | 1017 hPa | 0 mm | - | 86 W/m² | - |
| 1788546246 | 36.11° C | 50% | 1016.9 hPa | 0 mm | - | 645 W/m² | - |
| 1788545940 | 36.11° C | 53% | 1016.9 hPa | 0 mm | - | 640 W/m² | - |
| 1788545635 | 36.11° C | 52% | 1017.1 hPa | 0 mm | - | 519 W/m² | - |
| 1788545331 | 36.67° C | 48% | 1017 hPa | 0 mm | - | 670 W/m² | - |
| 1788545026 | 36.67° C | 51% | 1017.1 hPa | 0 mm | - | 684 W/m² | - |
| 1788544725 | 36.11° C | 53% | 1017.3 hPa | 0 mm | - | 693 W/m² | - |
| 1788544425 | 36.11° C | 52% | 1017.3 hPa | 0 mm | - | 675 W/m² | - |
| 1788544124 | 36.67° C | 50% | 1017.3 hPa | 0 mm | - | 682 W/m² | - |
| 1788543815 | 36.67° C | 51% | 1017.3 hPa | 0 mm | - | 682 W/m² | - |
| 1788543511 | 36.67° C | 50% | 1017.3 hPa | 0 mm | - | 150 W/m² | - |
| 1788543206 | 36.67° C | 51% | 1017.5 hPa | 0 mm | - | 673 W/m² | - |
| 1788542902 | 36.67° C | 50% | 1017.4 hPa | 0 mm | - | 672 W/m² | - |
| 1788542601 | 36.67° C | 53% | 1017.5 hPa | 0 mm | - | 670 W/m² | - |
* Rain latest hour (hover to see other rain measurements)
** Current wind speed in m/s (hover to see current wind gust speed)